Temp: 5.0°C   Baro: 1014.1mb
  Wind: 2.9mph   Dir: SE (133°)
  Rain: 1.0mm (0.0mm/hr)
  Solar: 0W/m2  Hum: 94%
 
Bath Spa Weather Station Historical Data
Daily Summary for October 20, 2020 Units:  Metric    English   Both
Daily Weekly Monthly Yearly Custom
  High: Low: Average:
Temperature: 16.4 °C 12.1 °C 14.2 °C
Dew Point: 13.4 °C 9.2 °C 12.5 °C
Humidity: 92% 77.4% 87%
Wind Speed: 20km/h 1.6km/h 8.2km/h
Wind Gust: 43.5km/h - -
Wind- - South
Pressure: 1001.9 hPa 997.2 hPa -
Precipitation: 2.03 mm    
Historical Graphs
 
 
Tabular Data for October 20, 2020
Time Temperature Dew Point Pressure Wind Wind Speed Wind Gust Humidity Rainfall Rate (Hourly) solar
00:04 12.6 °C 9.3 °C 1001.9 hPa SSE 12.4 km/h 20.9 km/h 78% 0 mm 0 W/m2
00:09 12.4 °C 9.2 °C 1001.6 hPa SE 8.4 km/h 19.3 km/h 78% 0 mm 0 W/m2
00:14 12.4 °C 9.3 °C 1001.6 hPa SSE 9.7 km/h 20.9 km/h 78.8% 0 mm 0 W/m2
00:19 12.4 °C 9.3 °C 1001.6 hPa SSE 11.3 km/h 19.3 km/h 79% 0 mm 0 W/m2
00:24 12.3 °C 9.4 °C 1001.2 hPa SSE 11.3 km/h 19.3 km/h 80% 0 mm 0 W/m2
00:29 12.4 °C 9.5 °C 1001.2 hPa SSE 13.2 km/h 22.5 km/h 80% 0 mm 0 W/m2
00:34 12.4 °C 9.6 °C 1001.2 hPa SSE 11.1 km/h 24.1 km/h 80% 0 mm 0 W/m2
00:39 12.6 °C 9.7 °C 1001.2 hPa SSE 14.2 km/h 22.5 km/h 80% 0 mm 0 W/m2
00:44 12.6 °C 9.7 °C 1001.2 hPa SSE 9.2 km/h 22.5 km/h 80% 0 mm 0 W/m2
00:49 12.6 °C 9.8 °C 1001.2 hPa SE 9 km/h 20.9 km/h 81% 0 mm 0 W/m2
00:54 12.5 °C 9.9 °C 1001.2 hPa SSE 10.8 km/h 17.7 km/h 81.8% 0 mm 0 W/m2
00:59 12.6 °C 10.1 °C 1000.9 hPa South 12.7 km/h 25.7 km/h 82% 0.25 mm 0 W/m2
01:04 12.6 °C 10.1 °C 1000.9 hPa SSE 14 km/h 22.5 km/h 82.5% 0.25 mm 0 W/m2
01:09 12.5 °C 10.2 °C 1000.9 hPa SSE 12.7 km/h 25.7 km/h 83% 0.25 mm 0 W/m2
01:14 12.4 °C 10.2 °C 1000.6 hPa SSE 12.7 km/h 16.1 km/h 83.2% 0.25 mm 0 W/m2
01:19 12.3 °C 10.3 °C 1000.6 hPa SSE 11.6 km/h 17.7 km/h 84% 0.25 mm 0 W/m2
01:24 12.3 °C 10.2 °C 1000.6 hPa SSE 9 km/h 20.9 km/h 84.2% 0.25 mm 0 W/m2
01:29 12.3 °C 10.3 °C 1000.6 hPa SE 8.7 km/h 16.1 km/h 85% 0.25 mm 0 W/m2
01:34 12.3 °C 10.3 °C 1000.2 hPa SSE 9.2 km/h 17.7 km/h 85% 0.25 mm 0 W/m2
01:39 12.3 °C 10.5 °C 1000.2 hPa SSE 10.1 km/h 22.5 km/h 86% 0.25 mm 0 W/m2
01:44 12.3 °C 10.5 °C 1000.2 hPa SSE 12.6 km/h 22.5 km/h 86% 0.25 mm 0 W/m2
01:49 12.4 °C 10.6 °C 1000.2 hPa SSE 9 km/h 24.1 km/h 86% 0.25 mm 0 W/m2
01:54 12.3 °C 10.7 °C 1000.2 hPa SSE 8.5 km/h 14.5 km/h 86.8% 0.25 mm 0 W/m2
01:59 12.3 °C 10.7 °C 1000.2 hPa SSE 10.6 km/h 22.5 km/h 87% 0.25 mm 0 W/m2
02:04 12.2 °C 10.7 °C 999.9 hPa SSE 6.1 km/h 17.7 km/h 87.4% 0 mm 0 W/m2
02:09 12.2 °C 10.7 °C 999.9 hPa SSE 6.9 km/h 17.7 km/h 88% 0.25 mm 0 W/m2
02:14 12.1 °C 10.7 °C 999.9 hPa SE 8.2 km/h 14.5 km/h 88% 0.25 mm 0 W/m2
02:19 12.1 °C 10.8 °C 999.9 hPa SSE 7.4 km/h 14.5 km/h 89% 0.25 mm 0 W/m2
02:24 12.1 °C 10.8 °C 999.9 hPa SSE 8 km/h 24.1 km/h 89% 0.25 mm 0 W/m2
02:29 12.1 °C 11 °C 999.9 hPa SSE 5.3 km/h 24.1 km/h 90% 0.25 mm 0 W/m2
02:34 12.1 °C 11 °C 999.9 hPa SE 7.4 km/h 16.1 km/h 90% 0.25 mm 0 W/m2
02:39 12.1 °C 11 °C 999.9 hPa SSE 9.2 km/h 19.3 km/h 90% 0.25 mm 0 W/m2
02:44 12.2 °C 11.1 °C 999.9 hPa SE 6.3 km/h 14.5 km/h 90% 0.25 mm 0 W/m2
02:49 12.2 °C 11.2 °C 999.9 hPa SSE 7.1 km/h 12.9 km/h 90.4% 0.25 mm 0 W/m2
02:54 12.2 °C 11.3 °C 999.5 hPa SE 7.1 km/h 16.1 km/h 91% 0.25 mm 0 W/m2
02:59 12.2 °C 11.3 °C 999.5 hPa SE 6.6 km/h 16.1 km/h 91% 0.25 mm 0 W/m2
03:04 12.3 °C 11.4 °C 999.5 hPa SSE 6.1 km/h 14.5 km/h 91% 0.25 mm 0 W/m2
03:09 12.3 °C 11.4 °C 999.5 hPa SSE 7.7 km/h 12.9 km/h 91% 0.25 mm 0 W/m2
03:14 12.4 °C 11.5 °C 999.2 hPa SSE 9.7 km/h 16.1 km/h 91% 0 mm 0 W/m2
03:19 12.5 °C 11.6 °C 999.2 hPa SSE 6.8 km/h 16.1 km/h 91% 0 mm 0 W/m2
03:24 12.6 °C 11.7 °C 999.2 hPa SSE 7.2 km/h 11.3 km/h 91% 0 mm 0 W/m2
03:29 12.6 °C 11.7 °C 999.2 hPa SSE 8.5 km/h 12.9 km/h 91% 0 mm 0 W/m2
03:34 12.6 °C 11.7 °C 999.2 hPa SSE 8.4 km/h 11.3 km/h 91% 0 mm 0 W/m2
03:39 12.7 °C 11.8 °C 998.9 hPa SSE 10.6 km/h 19.3 km/h 91% 0 mm 0 W/m2
03:44 12.8 °C 11.8 °C 998.9 hPa SSE 6.4 km/h 19.3 km/h 91% 0 mm 0 W/m2
03:49 12.8 °C 11.9 °C 998.9 hPa SSE 11.9 km/h 17.7 km/h 91% 0 mm 0 W/m2
03:54 13.1 °C 12 °C 998.9 hPa South 11.3 km/h 25.7 km/h 90.4% 0 mm 0 W/m2
03:59 13.2 °C 12.1 °C 998.9 hPa SSE 10.5 km/h 16.1 km/h 90% 0 mm 0 W/m2
04:04 13.2 °C 12.1 °C 998.9 hPa South 7.2 km/h 16.1 km/h 90% 0 mm 0 W/m2
04:09 13.2 °C 12.1 °C 998.9 hPa SSE 11.6 km/h 20.9 km/h 89.6% 0 mm 0 W/m2
04:14 13.3 °C 12 °C 998.5 hPa SSE 7.7 km/h 14.5 km/h 89% 0 mm 0 W/m2
04:19 13.3 °C 12 °C 998.5 hPa SSE 6.9 km/h 14.5 km/h 89% 0 mm 0 W/m2
04:24 13.3 °C 12 °C 998.5 hPa SSE 7.6 km/h 12.9 km/h 89% 0 mm 0 W/m2
04:29 13.3 °C 12 °C 998.5 hPa SSE 5.5 km/h 11.3 km/h 89% 0 mm 0 W/m2
04:34 13.3 °C 12 °C 998.5 hPa SSE 7.4 km/h 14.5 km/h 89% 0 mm 0 W/m2
04:39 13.3 °C 12.1 °C 998.5 hPa SSE 7.2 km/h 17.7 km/h 89% 0 mm 0 W/m2
04:44 13.4 °C 12.1 °C 998.5 hPa SSE 7.1 km/h 16.1 km/h 89% 0 mm 0 W/m2
04:49 13.4 °C 12.1 °C 998.5 hPa SSE 7.2 km/h 17.7 km/h 89% 0 mm 0 W/m2
04:54 13.4 °C 12.2 °C 998.5 hPa SSE 8.9 km/h 17.7 km/h 89.8% 0 mm 0 W/m2
04:59 13.4 °C 12.3 °C 998.5 hPa SSE 8.4 km/h 17.7 km/h 90% 0 mm 0 W/m2
05:04 13.3 °C 12.3 °C 998.5 hPa SSE 8.4 km/h 17.7 km/h 90% 0.25 mm 0 W/m2
05:09 13.3 °C 12.3 °C 998.2 hPa SE 5.8 km/h 12.9 km/h 90.2% 0.25 mm 0 W/m2
05:14 13.3 °C 12.4 °C 998.2 hPa SE 6.6 km/h 11.3 km/h 91% 0.25 mm 0 W/m2
05:19 13.3 °C 12.4 °C 998.2 hPa SSE 6.6 km/h 12.9 km/h 91% 0.25 mm 0 W/m2
05:24 13.3 °C 12.4 °C 998.2 hPa SSE 6.6 km/h 14.5 km/h 91% 0.25 mm 0 W/m2
05:29 13.3 °C 12.4 °C 998.2 hPa SSE 7.9 km/h 16.1 km/h 91% 0.25 mm 0 W/m2
05:34 13.4 °C 12.5 °C 998.2 hPa SSE 6.4 km/h 12.9 km/h 91% 0.25 mm 0 W/m2
05:39 13.4 °C 12.6 °C 998.5 hPa SSE 9 km/h 17.7 km/h 91.8% 0.51 mm 0 W/m2
05:44 13.4 °C 12.6 °C 998.5 hPa SSE 6.6 km/h 17.7 km/h 92% 0.51 mm 0 W/m2
05:49 13.5 °C 12.7 °C 998.5 hPa SSE 5.6 km/h 12.9 km/h 92% 0.51 mm 0 W/m2
05:54 13.5 °C 12.7 °C 998.5 hPa SSE 6.6 km/h 12.9 km/h 92% 0.51 mm 0 W/m2
05:59 13.5 °C 12.7 °C 998.5 hPa SSE 5.5 km/h 12.9 km/h 92% 0.51 mm 0 W/m2
06:04 13.6 °C 12.8 °C 998.2 hPa SSE 7.1 km/h 16.1 km/h 92% 0.51 mm 0 W/m2
06:09 13.6 °C 12.8 °C 998.2 hPa SSE 8 km/h 16.1 km/h 92% 0.25 mm 0 W/m2
06:14 13.7 °C 12.9 °C 998.2 hPa South 8.5 km/h 17.7 km/h 92% 0.25 mm 0 W/m2
06:19 13.7 °C 12.9 °C 998.2 hPa SSE 7.7 km/h 16.1 km/h 92% 0.25 mm 0 W/m2
06:24 13.7 °C 12.9 °C 998.5 hPa SSE 7.1 km/h 11.3 km/h 92% 0.25 mm 0 W/m2
06:29 13.8 °C 13 °C 998.5 hPa South 6.4 km/h 14.5 km/h 92% 0.25 mm 0 W/m2
06:34 13.8 °C 13 °C 998.5 hPa South 5.6 km/h 16.1 km/h 92% 0.25 mm 0 W/m2
06:39 13.8 °C 13.1 °C 998.5 hPa SSE 10.5 km/h 19.3 km/h 92% 0 mm 0 W/m2
06:44 13.9 °C 13.1 °C 998.5 hPa SSE 6 km/h 14.5 km/h 92% 0 mm 0 W/m2
06:49 13.9 °C 13.1 °C 998.5 hPa SSE 4.5 km/h 11.3 km/h 92% 0 mm 0 W/m2
06:54 13.9 °C 13.1 °C 998.2 hPa SSE 6 km/h 12.9 km/h 92% 0 mm 0 W/m2
06:59 13.9 °C 13.1 °C 998.2 hPa SSE 4.5 km/h 12.9 km/h 92% 0 mm 0 W/m2
07:04 13.9 °C 13.1 °C 998.2 hPa South 4 km/h 9.7 km/h 92% 0 mm 0 W/m2
07:09 13.9 °C 13.1 °C 998.2 hPa South 4.2 km/h 9.7 km/h 92% 0 mm 0 W/m2
07:14 13.9 °C 13.1 °C 998.2 hPa South 6 km/h 12.9 km/h 92% 0 mm 0 W/m2
07:19 13.9 °C 13.2 °C 998.2 hPa SSW 3.2 km/h 9.7 km/h 92% 0 mm 0 W/m2
07:24 13.9 °C 13.1 °C 998.2 hPa South 6.6 km/h 11.3 km/h 92% 0.25 mm 0 W/m2
07:29 14 °C 13.2 °C 998.2 hPa SSE 4.5 km/h 9.7 km/h 92% 0.25 mm 0 W/m2
07:34 14 °C 13.2 °C 998.2 hPa South 1.9 km/h 9.7 km/h 92% 0.25 mm 0 W/m2
07:39 13.9 °C 13.2 °C 998.5 hPa SSW 7.1 km/h 11.3 km/h 92% 0.25 mm 0 W/m2
07:44 14 °C 13.2 °C 998.5 hPa South 5.3 km/h 14.5 km/h 92% 0.25 mm 0 W/m2
07:49 14 °C 13.2 °C 998.5 hPa SSE 6.8 km/h 14.5 km/h 92% 0.25 mm 0 W/m2
07:54 14.1 °C 13.2 °C 998.5 hPa SSW 5.3 km/h 14.5 km/h 92% 0.25 mm 5 W/m2
07:59 14.1 °C 13.3 °C 998.5 hPa South 4.5 km/h 11.3 km/h 92% 0.25 mm 5 W/m2
08:04 14.1 °C 13.3 °C 998.5 hPa SSE 7.1 km/h 12.9 km/h 92% 0.25 mm 12 W/m2
08:09 14.2 °C 13.3 °C 998.2 hPa SSE 5.3 km/h 11.3 km/h 91.6% 0.25 mm 21 W/m2
08:14 14.2 °C 13.2 °C 998.5 hPa South 4.7 km/h 16.1 km/h 91% 0.25 mm 49 W/m2
08:19 14.2 °C 13.2 °C 998.5 hPa SSW 9.7 km/h 17.7 km/h 91% 0.25 mm 47 W/m2
08:24 14.3 °C 13.3 °C 998.5 hPa South 6 km/h 12.9 km/h 91% 0.25 mm 35 W/m2
08:29 14.3 °C 13.2 °C 998.5 hPa South 6.3 km/h 11.3 km/h 90.4% 0 mm 32 W/m2
08:34 14.3 °C 13.2 °C 998.5 hPa South 8.4 km/h 12.9 km/h 90% 0 mm 46 W/m2
08:39 14.4 °C 13.2 °C 998.5 hPa South 11.6 km/h 20.9 km/h 89.6% 0 mm 53 W/m2
08:44 14.5 °C 13.2 °C 998.5 hPa South 10.5 km/h 17.7 km/h 89% 0 mm 35 W/m2
08:49 14.6 °C 13.2 °C 998.5 hPa South 12.6 km/h 22.5 km/h 88.6% 0 mm 30 W/m2
08:54 14.6 °C 13.1 °C 998.5 hPa South 12.9 km/h 25.7 km/h 88% 0 mm 23 W/m2
08:59 14.6 °C 13.1 °C 998.5 hPa South 10.3 km/h 17.7 km/h 88% 0 mm 28 W/m2
09:04 14.6 °C 13.1 °C 998.5 hPa South 8.5 km/h 17.7 km/h 88% 0 mm 35 W/m2
09:09 14.6 °C 13.1 °C 998.5 hPa South 8.4 km/h 16.1 km/h 87.8% 0 mm 18 W/m2
09:14 14.6 °C 13.1 °C 998.5 hPa SSW 9.7 km/h 17.7 km/h 88% 0 mm 32 W/m2
09:19 14.5 °C 13 °C 998.9 hPa SSW 10.6 km/h 17.7 km/h 88% 0 mm 53 W/m2
09:24 14.4 °C 12.9 °C 998.9 hPa SSW 12.4 km/h 24.1 km/h 88% 0 mm 62 W/m2
09:29 14.4 °C 12.9 °C 998.9 hPa SW 10.3 km/h 22.5 km/h 88% 0.25 mm 42 W/m2
09:34 14.4 °C 12.9 °C 998.5 hPa SW 6 km/h 16.1 km/h 88% 0.51 mm 46 W/m2
09:39 14.3 °C 12.9 °C 998.5 hPa South 7.1 km/h 14.5 km/h 88.6% 0.51 mm 70 W/m2
09:44 14.3 °C 13 °C 998.9 hPa SSW 9 km/h 19.3 km/h 89% 0.51 mm 146 W/m2
09:49 14.4 °C 13.2 °C 998.9 hPa South 5.3 km/h 16.1 km/h 89% 0.51 mm 155 W/m2
09:54 14.6 °C 13.3 °C 998.9 hPa SSW 8.9 km/h 22.5 km/h 89% 0.51 mm 172 W/m2
09:59 14.7 °C 13.3 °C 998.9 hPa South 9.7 km/h 25.7 km/h 88.6% 0.51 mm 178 W/m2
10:04 14.8 °C 13.2 °C 998.9 hPa South 10.6 km/h 25.7 km/h 87.6% 0.51 mm 146 W/m2
10:09 14.8 °C 13.2 °C 998.9 hPa SSW 15 km/h 29 km/h 87% 0.51 mm 134 W/m2
10:14 14.9 °C 13.1 °C 998.5 hPa South 11.3 km/h 22.5 km/h 86.4% 0.51 mm 91 W/m2
10:19 14.8 °C 13 °C 998.9 hPa South 10.6 km/h 24.1 km/h 86% 0.51 mm 107 W/m2
10:24 14.9 °C 13.1 °C 998.9 hPa SSW 13.5 km/h 20.9 km/h 86% 0.51 mm 104 W/m2
10:29 14.9 °C 13.1 °C 998.9 hPa SSW 14.2 km/h 22.5 km/h 85.8% 0.51 mm 84 W/m2
10:34 15 °C 12.9 °C 998.9 hPa SSW 12.4 km/h 22.5 km/h 85% 0.25 mm 114 W/m2
10:38 15 °C 13 °C 998.9 hPa SSW 14.2 km/h 19.3 km/h 85% 0.25 mm 109 W/m2
14:14 16 °C 12.9 °C 998.9 hPa SSW 6.4 km/h 16.1 km/h 79.5% 0 mm 56 W/m2
14:19 15.9 °C 12.9 °C 998.5 hPa South 10.1 km/h 29 km/h 79.8% 0 mm 65 W/m2
14:24 15.9 °C 12.8 °C 998.5 hPa SW 9.5 km/h 20.9 km/h 79.8% 0 mm 102 W/m2
14:29 15.9 °C 12.9 °C 998.5 hPa SSW 6.9 km/h 19.3 km/h 80% 0 mm 107 W/m2
14:34 15.9 °C 12.9 °C 998.5 hPa SW 5.6 km/h 16.1 km/h 80% 0 mm 100 W/m2
14:39 16 °C 12.9 °C 998.5 hPa SSW 10.8 km/h 24.1 km/h 79.4% 0 mm 181 W/m2
14:42 16.1 °C 12.9 °C 998.5 hPa SSW 11.1 km/h 25.7 km/h 79% 0 mm 197 W/m2
14:54 16.3 °C 12.9 °C 998.5 hPa SW 10.5 km/h 19.3 km/h 78% 0 mm 53 W/m2
14:59 16.2 °C 12.8 °C 998.5 hPa South 8.7 km/h 22.5 km/h 78.2% 0 mm 91 W/m2
15:04 15.8 °C 12.8 °C 998.5 hPa SSW 7.7 km/h 16.1 km/h 79.8% 0 mm 123 W/m2
15:09 15.6 °C 12.8 °C 998.5 hPa SSW 9.7 km/h 17.7 km/h 81.2% 0 mm 105 W/m2
15:14 15.5 °C 12.9 °C 998.5 hPa SSW 10.3 km/h 19.3 km/h 82% 0 mm 84 W/m2
15:19 15.7 °C 13.1 °C 998.5 hPa South 10.3 km/h 24.1 km/h 82% 0 mm 169 W/m2
15:24 16 °C 13.2 °C 998.5 hPa SW 15.8 km/h 25.7 km/h 80.8% 0 mm 396 W/m2
15:29 16.4 °C 13.2 °C 998.5 hPa SSW 14.8 km/h 24.1 km/h 78.8% 0 mm 396 W/m2
15:34 16.4 °C 12.9 °C 998.5 hPa SW 20 km/h 33.8 km/h 77.4% 0 mm 97 W/m2
15:39 16.3 °C 12.9 °C 998.5 hPa SSW 10 km/h 24.1 km/h 78% 0 mm 81 W/m2
15:44 16.2 °C 12.8 °C 998.5 hPa SSW 11.7 km/h 24.1 km/h 78% 0 mm 76 W/m2
15:49 15.9 °C 12.8 °C 998.5 hPa SSW 11.3 km/h 32.2 km/h 79.4% 0 mm 128 W/m2
15:54 15.8 °C 12.9 °C 998.5 hPa SSW 7.7 km/h 14.5 km/h 80.6% 0 mm 141 W/m2
15:59 15.8 °C 13 °C 998.5 hPa SSW 9 km/h 19.3 km/h 81% 0 mm 216 W/m2
16:04 15.9 °C 13.1 °C 998.5 hPa South 8 km/h 19.3 km/h 81% 0 mm 206 W/m2
16:09 16.2 °C 13.2 °C 998.5 hPa South 16.7 km/h 43.5 km/h 80.4% 0 mm 302 W/m2
16:14 16.3 °C 13.2 °C 998.5 hPa SSW 11.3 km/h 30.6 km/h 79% 0 mm 176 W/m2
16:19 16.3 °C 13.1 °C 998.5 hPa SSW 13.5 km/h 25.7 km/h 78.6% 0 mm 146 W/m2
16:24 16.3 °C 12.9 °C 998.5 hPa South 12.6 km/h 27.4 km/h 78% 0 mm 113 W/m2
16:29 16.3 °C 12.9 °C 998.2 hPa South 12.6 km/h 20.9 km/h 78.2% 0 mm 88 W/m2
16:34 16.2 °C 12.9 °C 998.5 hPa South 8.4 km/h 20.9 km/h 78.8% 0 mm 39 W/m2
16:39 16.1 °C 12.9 °C 998.5 hPa South 9.8 km/h 24.1 km/h 79% 0 mm 39 W/m2
16:44 16.1 °C 12.9 °C 998.5 hPa SSW 10.5 km/h 20.9 km/h 79% 0 mm 69 W/m2
16:49 16.1 °C 12.9 °C 998.2 hPa South 10.1 km/h 20.9 km/h 79% 0 mm 62 W/m2
16:54 15.9 °C 12.7 °C 998.2 hPa South 8.9 km/h 20.9 km/h 79% 0 mm 46 W/m2
16:59 15.9 °C 12.9 °C 998.2 hPa South 6.6 km/h 20.9 km/h 80% 0 mm 49 W/m2
17:04 15.9 °C 12.9 °C 998.2 hPa South 11.4 km/h 24.1 km/h 80% 0 mm 47 W/m2
17:14 15.8 °C 12.8 °C 998.2 hPa South 12.6 km/h 20.9 km/h 80.2% 0 mm 30 W/m2
17:19 15.8 °C 13 °C 998.2 hPa South 10.1 km/h 25.7 km/h 81% 0 mm 25 W/m2
17:24 15.8 °C 13 °C 998.2 hPa South 16.7 km/h 27.4 km/h 81% 0 mm 18 W/m2
17:29 15.8 °C 13 °C 997.9 hPa South 11.3 km/h 19.3 km/h 81% 0 mm 12 W/m2
17:34 15.7 °C 12.9 °C 998.2 hPa South 9.7 km/h 24.1 km/h 81% 0 mm 11 W/m2
17:39 15.7 °C 12.9 °C 997.9 hPa South 9.7 km/h 19.3 km/h 81% 0 mm 9 W/m2
17:44 15.7 °C 13 °C 997.9 hPa SSW 7.2 km/h 12.9 km/h 81.4% 0 mm 7 W/m2
17:49 15.6 °C 13 °C 998.2 hPa SSE 5.8 km/h 14.5 km/h 82% 0 mm 5 W/m2
17:54 15.5 °C 12.9 °C 998.2 hPa South 9 km/h 16.1 km/h 82.4% 0 mm 5 W/m2
17:59 15.4 °C 13 °C 998.2 hPa South 10 km/h 17.7 km/h 83% 0 mm 5 W/m2
18:04 15.4 °C 13 °C 998.2 hPa SSE 10 km/h 19.3 km/h 83% 0 mm 0 W/m2
18:09 15.3 °C 13.1 °C 998.2 hPa SSE 12.2 km/h 22.5 km/h 83.8% 0 mm 0 W/m2
18:14 15.3 °C 13.1 °C 998.2 hPa South 7.1 km/h 14.5 km/h 84% 0 mm 0 W/m2
18:19 15.2 °C 13 °C 998.2 hPa SSE 5.8 km/h 16.1 km/h 84% 0 mm 0 W/m2
18:24 15.2 °C 13.2 °C 998.2 hPa SSE 5.1 km/h 8 km/h 85% 0 mm 0 W/m2
18:29 15.1 °C 13.1 °C 998.2 hPa South 5.1 km/h 12.9 km/h 85% 0 mm 0 W/m2
18:34 15 °C 13.1 °C 998.2 hPa South 2.3 km/h 6.4 km/h 85.4% 0 mm 0 W/m2
18:39 15 °C 13.2 °C 998.2 hPa SSE 3.4 km/h 12.9 km/h 86% 0 mm 0 W/m2
18:44 15 °C 13.2 °C 998.2 hPa SSE 8.4 km/h 12.9 km/h 86% 0 mm 0 W/m2
18:49 15 °C 13.2 °C 998.2 hPa South 7.9 km/h 16.1 km/h 86.6% 0 mm 0 W/m2
18:54 14.8 °C 13.2 °C 998.2 hPa South 6.6 km/h 14.5 km/h 87% 0 mm 0 W/m2
18:59 14.8 °C 13.1 °C 998.2 hPa South 7.2 km/h 16.1 km/h 87% 0 mm 0 W/m2
19:04 14.6 °C 13.1 °C 998.5 hPa SSW 6.1 km/h 14.5 km/h 88% 0.25 mm 0 W/m2
19:09 14.6 °C 13.1 °C 998.2 hPa South 7.1 km/h 17.7 km/h 88% 0.25 mm 0 W/m2
19:14 14.5 °C 13.1 °C 998.2 hPa South 7.1 km/h 16.1 km/h 88.6% 0.25 mm 0 W/m2
19:19 14.5 °C 13.2 °C 998.2 hPa South 8 km/h 16.1 km/h 89% 0.25 mm 0 W/m2
19:24 14.4 °C 13.2 °C 998.2 hPa SSW 8.5 km/h 19.3 km/h 89% 0.25 mm 0 W/m2
19:29 14.6 °C 13.3 °C 998.2 hPa South 12.9 km/h 20.9 km/h 89% 0.25 mm 0 W/m2
19:34 14.6 °C 13.3 °C 997.9 hPa South 7.7 km/h 14.5 km/h 89% 0 mm 0 W/m2
19:39 14.6 °C 13.3 °C 997.9 hPa SSW 7.9 km/h 19.3 km/h 89% 0 mm 0 W/m2
19:44 14.6 °C 13.3 °C 997.9 hPa South 7.2 km/h 19.3 km/h 89% 0 mm 0 W/m2
19:49 14.5 °C 13.2 °C 997.9 hPa South 8.7 km/h 16.1 km/h 89% 0 mm 0 W/m2
19:54 14.4 °C 13.1 °C 997.9 hPa South 12.2 km/h 20.9 km/h 89% 0 mm 0 W/m2
19:59 14.4 °C 13.2 °C 998.2 hPa South 7.2 km/h 17.7 km/h 89% 0 mm 0 W/m2
20:04 14.4 °C 13.1 °C 998.2 hPa South 9.7 km/h 16.1 km/h 89% 0 mm 0 W/m2
20:09 14.4 °C 13.2 °C 998.2 hPa South 12.6 km/h 20.9 km/h 89.2% 0 mm 0 W/m2
20:14 14.5 °C 13.2 °C 998.2 hPa South 10.1 km/h 17.7 km/h 89% 0 mm 0 W/m2
20:19 14.6 °C 13.3 °C 998.2 hPa South 10.6 km/h 20.9 km/h 89% 0 mm 0 W/m2
20:24 14.6 °C 13.3 °C 998.2 hPa South 8.7 km/h 14.5 km/h 89% 0 mm 0 W/m2
20:29 14.6 °C 13.3 °C 998.2 hPa South 8.9 km/h 24.1 km/h 89% 0 mm 0 W/m2
20:34 14.7 °C 13.4 °C 998.2 hPa South 11.6 km/h 19.3 km/h 89% 0 mm 0 W/m2
20:39 14.7 °C 13.4 °C 997.9 hPa South 9.3 km/h 19.3 km/h 89% 0 mm 0 W/m2
20:44 14.7 °C 13.3 °C 997.9 hPa South 9.3 km/h 17.7 km/h 88.4% 0 mm 0 W/m2
20:49 14.7 °C 13.3 °C 997.9 hPa SSW 8.9 km/h 17.7 km/h 88.2% 0 mm 0 W/m2
20:54 14.7 °C 13.2 °C 997.9 hPa South 7.1 km/h 14.5 km/h 88% 0 mm 0 W/m2
20:59 14.7 °C 13.2 °C 997.9 hPa South 7.7 km/h 19.3 km/h 88% 0 mm 0 W/m2
21:04 14.7 °C 13.2 °C 997.9 hPa South 5.6 km/h 11.3 km/h 88% 0 mm 0 W/m2
21:09 14.6 °C 13.1 °C 997.9 hPa South 6.6 km/h 14.5 km/h 88% 0 mm 0 W/m2
21:14 14.6 °C 13.1 °C 997.9 hPa South 5.1 km/h 12.9 km/h 88% 0 mm 0 W/m2
21:19 14.6 °C 13.1 °C 997.9 hPa SSE 8 km/h 12.9 km/h 88% 0 mm 0 W/m2
21:24 14.6 °C 13.1 °C 997.9 hPa South 8.7 km/h 17.7 km/h 88% 0 mm 0 W/m2
21:29 14.6 °C 13.1 °C 997.9 hPa SSE 7.4 km/h 17.7 km/h 88% 0 mm 0 W/m2
21:34 14.6 °C 13.1 °C 997.5 hPa SSE 8 km/h 12.9 km/h 88% 0 mm 0 W/m2
21:39 14.6 °C 13.1 °C 997.5 hPa SSE 7.1 km/h 16.1 km/h 88% 0 mm 0 W/m2
21:44 14.6 °C 13.1 °C 997.5 hPa SSE 4.3 km/h 9.7 km/h 88% 0 mm 0 W/m2
21:49 14.5 °C 13 °C 997.5 hPa SE 4.3 km/h 8 km/h 88% 0 mm 0 W/m2
21:54 14.4 °C 12.9 °C 997.2 hPa SE 3.5 km/h 11.3 km/h 88% 0 mm 0 W/m2
21:59 14.4 °C 12.9 °C 997.2 hPa ESE 3.7 km/h 8 km/h 88% 0 mm 0 W/m2
22:03 14.3 °C 12.8 °C 997.2 hPa ESE 3.1 km/h 8 km/h 88% 0 mm 0 W/m2
22:09 14.2 °C 12.7 °C 997.2 hPa ESE 4 km/h 8 km/h 88% 0 mm 0 W/m2
22:14 14.1 °C 12.6 °C 997.2 hPa ESE 3.4 km/h 11.3 km/h 88% 0 mm 0 W/m2
22:19 14.1 °C 12.6 °C 997.2 hPa East 3.9 km/h 11.3 km/h 88% 0 mm 0 W/m2
22:24 13.9 °C 12.4 °C 997.2 hPa East 4 km/h 6.4 km/h 88% 0 mm 0 W/m2
22:29 13.9 °C 12.6 °C 997.5 hPa ESE 3.1 km/h 9.7 km/h 89% 0 mm 0 W/m2
22:34 13.8 °C 12.5 °C 997.5 hPa SE 4.3 km/h 9.7 km/h 88.6% 0 mm 0 W/m2
22:39 13.8 °C 12.5 °C 997.5 hPa SE 3.4 km/h 9.7 km/h 89% 0 mm 0 W/m2
22:44 13.8 °C 12.5 °C 997.5 hPa SE 3.9 km/h 8 km/h 89% 0 mm 0 W/m2
22:49 13.7 °C 12.4 °C 997.5 hPa ESE 3.9 km/h 8 km/h 89% 0 mm 0 W/m2
22:54 13.7 °C 12.4 °C 997.5 hPa SE 5.1 km/h 11.3 km/h 89% 0 mm 0 W/m2
22:59 13.8 °C 12.5 °C 997.5 hPa SE 4 km/h 11.3 km/h 89% 0 mm 0 W/m2
23:04 13.8 °C 12.5 °C 997.5 hPa SSE 4 km/h 9.7 km/h 89% 0 mm 0 W/m2
23:09 13.8 °C 12.6 °C 997.5 hPa SE 5.3 km/h 9.7 km/h 89% 0 mm 0 W/m2
23:14 13.9 °C 12.6 °C 997.5 hPa SSE 4.7 km/h 11.3 km/h 89% 0 mm 0 W/m2
23:19 13.9 °C 12.7 °C 997.5 hPa SSE 4.7 km/h 9.7 km/h 89.6% 0 mm 0 W/m2
23:24 13.9 °C 12.8 °C 997.5 hPa SSE 3.1 km/h 6.4 km/h 90% 0 mm 0 W/m2
23:29 14.1 °C 12.9 °C 997.5 hPa SSE 3.9 km/h 8 km/h 90% 0 mm 0 W/m2
23:34 14.1 °C 13 °C 997.2 hPa SSE 4.7 km/h 8 km/h 90% 0 mm 0 W/m2
23:39 14.2 °C 13.1 °C 997.5 hPa SE 4.5 km/h 12.9 km/h 90% 0 mm 0 W/m2
23:44 14.2 °C 13.1 °C 997.5 hPa SSE 5.1 km/h 8 km/h 90% 0 mm 0 W/m2
23:49 14.2 °C 13.1 °C 997.5 hPa SE 4.5 km/h 9.7 km/h 90% 0 mm 0 W/m2
23:54 14.2 °C 13.1 °C 997.5 hPa SE 3.9 km/h 8 km/h 90% 0 mm 0 W/m2
23:59 14.2 °C 13.1 °C 997.2 hPa SE 1.6 km/h 8 km/h 90% 0 mm 0 W/m2
Bath Spa Weather
Compliments of Weather Underground - 2 mb